TimeCDT,TemperatureF,Dew PointF,Humidity,Sea Level PressureIn,VisibilityMPH,Wind Direction,Wind SpeedMPH,Gust SpeedMPH,PrecipitationIn,Events,Conditions,WindDirDegrees,DateUTC
12:15 AM,77.0,69.8,78,30.10,10.0,Calm,Calm,-,N/A,,Unknown,0,2013-09-17 05:15:00
12:35 AM,77.0,69.8,78,30.10,10.0,Calm,Calm,-,N/A,,Unknown,0,2013-09-17 05:35:00
12:55 AM,77.0,69.8,78,30.10,10.0,Calm,Calm,-,N/A,,Unknown,0,2013-09-17 05:55:00
1:15 AM,75.2,68.0,78,30.10,10.0,Calm,Calm,-,N/A,,Unknown,0,2013-09-17 06:15:00
1:35 AM,77.0,68.0,74,30.10,10.0,Calm,Calm,-,N/A,,Unknown,0,2013-09-17 06:35:00
1:55 AM,73.4,64.4,73,30.10,10.0,Calm,Calm,-,N/A,,Unknown,0,2013-09-17 06:55:00
2:15 AM,73.4,64.4,73,30.10,10.0,Calm,Calm,-,N/A,,Unknown,0,2013-09-17 07:15:00
2:35 AM,71.6,64.4,78,30.10,10.0,Calm,Calm,-,N/A,,Unknown,0,2013-09-17 07:35:00
2:55 AM,71.6,62.6,73,30.10,10.0,Calm,Calm,-,N/A,,Unknown,0,2013-09-17 07:55:00
3:15 AM,73.4,62.6,69,30.10,10.0,Calm,Calm,-,N/A,,Unknown,0,2013-09-17 08:15:00
3:35 AM,71.6,64.4,78,30.09,10.0,Calm,Calm,-,N/A,,Unknown,0,2013-09-17 08:35:00
3:55 AM,71.6,64.4,78,30.09,10.0,Calm,Calm,-,N/A,,Unknown,0,2013-09-17 08:55:00
4:15 AM,71.6,64.4,78,30.09,10.0,Calm,Calm,-,N/A,,Unknown,0,2013-09-17 09:15:00
4:35 AM,68.0,64.4,88,30.09,10.0,Calm,Calm,-,N/A,,Unknown,0,2013-09-17 09:35:00
4:55 AM,71.6,64.4,78,30.09,10.0,Calm,Calm,-,N/A,,Unknown,0,2013-09-17 09:55:00
5:15 AM,68.0,62.6,83,30.09,10.0,Calm,Calm,-,N/A,,Unknown,0,2013-09-17 10:15:00
5:35 AM,71.6,64.4,78,30.09,10.0,Calm,Calm,-,N/A,,Unknown,0,2013-09-17 10:35:00
5:55 AM,68.0,64.4,88,30.10,10.0,North,3.5,-,N/A,,Unknown,350,2013-09-17 10:55:00
6:15 AM,71.6,66.2,83,30.10,10.0,North,3.5,-,N/A,,Unknown,360,2013-09-17 11:15:00
6:35 AM,68.0,64.4,88,30.11,10.0,North,4.6,-,N/A,,Unknown,360,2013-09-17 11:35:00
6:55 AM,68.0,66.2,94,30.11,10.0,North,3.5,-,N/A,,Unknown,360,2013-09-17 11:55:00
7:15 AM,68.0,66.2,94,30.11,10.0,North,3.5,-,N/A,,Unknown,360,2013-09-17 12:15:00
7:35 AM,68.0,66.2,94,30.12,7.0,North,3.5,-,N/A,,Unknown,360,2013-09-17 12:35:00
7:55 AM,71.6,69.8,94,30.12,10.0,North,5.8,-,N/A,,Unknown,360,2013-09-17 12:55:00
8:15 AM,71.6,68.0,88,30.11,10.0,North,3.5,-,N/A,,Unknown,360,2013-09-17 13:15:00
8:35 AM,71.6,68.0,88,30.11,10.0,North,4.6,-,N/A,,Unknown,360,2013-09-17 13:35:00
8:55 AM,73.4,69.8,88,30.12,10.0,NNE,4.6,-,N/A,,Unknown,20,2013-09-17 13:55:00
9:15 AM,75.2,69.8,83,30.13,10.0,North,4.6,-,N/A,,Unknown,360,2013-09-17 14:15:00
9:35 AM,77.0,68.0,74,30.13,10.0,Calm,Calm,-,N/A,,Unknown,0,2013-09-17 14:35:00
9:55 AM,77.0,68.0,74,30.13,10.0,Calm,Calm,-,N/A,,Unknown,0,2013-09-17 14:55:00
10:15 AM,78.8,69.8,74,30.13,10.0,Calm,Calm,-,N/A,,Unknown,0,2013-09-17 15:15:00
10:35 AM,78.8,69.8,74,30.13,10.0,Calm,Calm,-,N/A,,Unknown,0,2013-09-17 15:35:00
10:55 AM,80.6,69.8,70,30.13,10.0,NE,3.5,-,N/A,,Unknown,50,2013-09-17 15:55:00
11:15 AM,80.6,69.8,70,30.12,10.0,NNE,3.5,-,N/A,,Unknown,30,2013-09-17 16:15:00
11:35 AM,82.4,69.8,66,30.11,10.0,NNE,3.5,-,N/A,,Unknown,30,2013-09-17 16:35:00
11:55 AM,82.4,69.8,66,30.11,10.0,North,3.5,-,N/A,,Unknown,10,2013-09-17 16:55:00
12:15 PM,84.2,69.8,62,30.10,10.0,Calm,Calm,-,N/A,,Unknown,0,2013-09-17 17:15:00
12:35 PM,86.0,69.8,58,30.09,10.0,Calm,Calm,-,N/A,,Unknown,0,2013-09-17 17:35:00
12:55 PM,87.8,71.6,58,30.08,10.0,North,4.6,-,N/A,,Unknown,10,2013-09-17 17:55:00
1:15 PM,87.8,71.6,58,30.07,10.0,NNE,3.5,-,N/A,,Unknown,20,2013-09-17 18:15:00
1:35 PM,91.4,73.4,55,30.06,10.0,Calm,Calm,-,N/A,,Unknown,0,2013-09-17 18:35:00
1:55 PM,89.6,71.6,55,30.05,10.0,Calm,Calm,-,N/A,,Unknown,0,2013-09-17 18:55:00
2:15 PM,91.4,71.6,52,30.04,10.0,East,4.6,-,N/A,,Unknown,80,2013-09-17 19:15:00
2:35 PM,91.4,71.6,52,30.03,10.0,NNW,3.5,-,N/A,,Unknown,340,2013-09-17 19:35:00
2:55 PM,91.4,71.6,52,30.02,10.0,Calm,Calm,-,N/A,,Unknown,0,2013-09-17 19:55:00
3:15 PM,91.4,69.8,49,30.01,10.0,Calm,Calm,-,N/A,,Unknown,0,2013-09-17 20:15:00
3:35 PM,91.4,69.8,49,30.00,10.0,Calm,Calm,-,N/A,,Unknown,0,2013-09-17 20:35:00
3:55 PM,91.4,69.8,49,30.00,10.0,Calm,Calm,-,N/A,,Unknown,0,2013-09-17 20:55:00
4:15 PM,91.4,69.8,49,29.99,10.0,Calm,Calm,-,N/A,,Unknown,0,2013-09-17 21:15:00
4:35 PM,91.4,73.4,55,29.99,10.0,South,8.1,-,N/A,,Unknown,180,2013-09-17 21:35:00
4:55 PM,86.0,71.6,62,29.99,10.0,SSW,8.1,-,N/A,Rain,Light Rain,200,2013-09-17 21:55:00
5:15 PM,87.8,73.4,62,29.99,10.0,SSW,9.2,-,N/A,,Unknown,210,2013-09-17 22:15:00
5:35 PM,82.4,71.6,70,29.99,10.0,SSW,4.6,-,N/A,,Unknown,200,2013-09-17 22:35:00
5:55 PM,82.4,71.6,70,30.00,10.0,SSW,4.6,-,N/A,,Unknown,200,2013-09-17 22:55:00
6:15 PM,80.6,71.6,74,30.00,10.0,SSW,4.6,-,N/A,,Unknown,210,2013-09-17 23:15:00
6:35 PM,80.6,71.6,74,29.99,10.0,SW,3.5,-,N/A,,Unknown,230,2013-09-17 23:35:00
6:55 PM,80.6,73.4,79,29.99,10.0,Calm,Calm,-,N/A,,Unknown,0,2013-09-17 23:55:00
7:15 PM,80.6,73.4,79,29.99,10.0,Calm,Calm,-,N/A,,Unknown,0,2013-09-18 00:15:00
7:35 PM,78.8,71.6,78,29.99,10.0,Calm,Calm,-,N/A,,Unknown,0,2013-09-18 00:35:00
7:55 PM,78.8,71.6,78,29.99,10.0,Calm,Calm,-,N/A,,Unknown,0,2013-09-18 00:55:00
8:15 PM,78.8,71.6,78,30.00,10.0,WSW,6.9,-,N/A,,Unknown,250,2013-09-18 01:15:00
8:35 PM,78.8,71.6,78,30.00,10.0,SW,3.5,-,N/A,,Unknown,220,2013-09-18 01:35:00
8:55 PM,78.8,71.6,78,30.01,10.0,SW,3.5,-,N/A,,Unknown,230,2013-09-18 01:55:00
9:15 PM,78.8,71.6,78,30.01,10.0,Calm,Calm,-,N/A,,Unknown,0,2013-09-18 02:15:00
9:35 PM,77.0,71.6,83,30.02,10.0,Calm,Calm,-,N/A,,Unknown,0,2013-09-18 02:35:00
9:55 PM,78.8,71.6,78,30.02,10.0,Calm,Calm,-,N/A,,Unknown,0,2013-09-18 02:55:00
10:15 PM,77.0,71.6,83,30.02,10.0,Calm,Calm,-,N/A,,Unknown,0,2013-09-18 03:15:00
10:35 PM,77.0,73.4,89,30.02,10.0,Calm,Calm,-,N/A,,Unknown,0,2013-09-18 03:35:00
10:55 PM,73.4,71.6,94,30.02,10.0,Calm,Calm,-,N/A,,Unknown,0,2013-09-18 03:55:00
11:15 PM,77.0,73.4,89,30.02,10.0,Calm,Calm,-,N/A,,Unknown,0,2013-09-18 04:15:00
11:35 PM,77.0,71.6,83,30.02,10.0,Calm,Calm,-,N/A,,Unknown,0,2013-09-18 04:35:00
11:55 PM,77.0,71.6,83,30.01,10.0,Calm,Calm,-,N/A,,Unknown,0,2013-09-18 04:55:00